Home > Weather > Poznan > Past weeks

Flag for Poland Past Weather in Poznan, Poland — Yesterday and Last 2 Weeks

Now
73 °F

Passing clouds.


Feels Like: 77 °F
Forecast: 53 / 77 °F
Wind: 5 mph from Southwest

Location: Poznan Airport

Current Time: Jun 28, 2016 at 1:37:11 PM

Latest Report: Jun 28, 2016 at 1:00 PM


Visibility: N/A

Pressure: 30.01 "Hg

Humidity: 44%

Dew Point: 50 °F

Location of PoznanLocation

Past Weather in Poznan — Graph

°F

Poznan Temperature Yesterday

Maximum temperature yesterday: 73 °F (at 2:30 PM)
Minimum temperature yesterday: 55 °F (at 3:00 AM)
Average temperature yesterday: 66 °F

High & Low Weather Summary for the Past Weeks

 TemperatureHumidityPressure
High93 °F (Jun 25, 2:00 PM)94% (Jun 13, 5:00 PM)30.30 "Hg (Jun 13, 5:00 PM)
Low52 °F (Jun 15, 4:30 AM)36% (Jun 24, 6:00 PM)29.39 "Hg (Jun 17, 8:30 AM)
Average67 °F72%29.92 "Hg
* Reported Jun 13 12:00 PM — Jun 28 12:00 PM, Poznan, Weather by CustomWeather, © 2016

Note: Actual official high and low records may vary slightly from our data, if they occured in-between our weather recording intervals... More about our weather records

Advertising

Poznan Weather History for the Previous 24 Hours

Scroll right to see more
 ConditionsComfort  
Time TempWeatherWind HumidityBarometerVisibility
12:00 PM
Tue, Jun 28
73 °FPassing clouds.9 mph44%30.01 "HgN/A
11:30 AM73 °FPassing clouds.8 mph44%30.01 "HgN/A
11:00 AM72 °FPassing clouds.9 mph47%30.01 "HgN/A
10:30 AM72 °FPassing clouds.7 mph50%30.01 "HgN/A
10:00 AM72 °FPassing clouds.7 mph47%30.01 "HgN/A
9:30 AM70 °FPassing clouds.3 mph57%30.01 "HgN/A
9:00 AM68 °FPassing clouds.3 mph64%30.01 "HgN/A
8:30 AM66 °FPassing clouds.3 mph68%30.01 "HgN/A
8:00 AM64 °FPassing clouds.3 mph73%30.01 "HgN/A
7:30 AM64 °FPassing clouds.5 mph68%30.01 "HgN/A
7:00 AM63 °FPassing clouds.3 mph77%30.04 "HgN/A
6:30 AM61 °FSunny.3 mph88%30.04 "Hg10 mi
6:00 AM59 °FFog.1 mph88%30.04 "Hg4 mi
5:30 AM59 °FFog.1 mph88%30.01 "Hg4 mi
5:00 AM59 °FFog.2 mph88%30.01 "Hg4 mi
4:30 AM59 °FFog.2 mph94%30.01 "HgN/A
4:00 AM61 °FClear.1 mph88%30.01 "Hg10 mi
3:30 AM61 °FClear.2 mph88%30.01 "Hg10 mi
3:00 AM61 °FClear.2 mph88%30.04 "Hg10 mi
2:30 AM63 °FClear.3 mph83%30.04 "Hg10 mi
2:00 AM63 °FClear.2 mph83%30.04 "Hg10 mi
1:30 AM63 °FPassing clouds.3 mph83%30.04 "HgN/A
1:00 AM63 °FClear.5 mph83%30.04 "Hg10 mi
12:30 AM64 °FClear.6 mph78%30.04 "Hg10 mi
12:00 AM64 °FClear.7 mph83%30.04 "Hg10 mi
11:30 PM
Mon, Jun 27
64 °FClear.6 mph83%30.04 "Hg10 mi
11:00 PM64 °FClear.5 mph83%30.04 "Hg10 mi
10:30 PM66 °FClear.5 mph73%30.04 "Hg10 mi
10:00 PM66 °FSunny.3 mph73%30.04 "Hg10 mi
9:30 PM68 °FSunny.5 mph64%30.01 "Hg10 mi
9:00 PM70 °FSunny.3 mph60%30.01 "Hg10 mi
8:30 PM70 °FPassing clouds.3 mph60%30.04 "HgN/A
8:00 PM70 °FPassing clouds.5 mph60%30.01 "HgN/A
7:30 PM70 °FSprinkles. Scattered clouds.3 mph60%30.04 "HgN/A
7:00 PM70 °FSprinkles. Scattered clouds.5 mph60%30.01 "HgN/A
6:30 PM72 °FPassing clouds.3 mph50%30.01 "HgN/A
6:00 PM72 °FSunny.2 mph50%30.01 "Hg10 mi
5:30 PM72 °FPassing clouds.5 mph50%30.01 "HgN/A
5:00 PM70 °FPassing clouds.8 mph53%30.01 "HgN/A
4:30 PM72 °FPassing clouds.7 mph50%30.01 "HgN/A
4:00 PM72 °FPassing clouds.7 mph53%30.04 "HgN/A
3:30 PM70 °FScattered clouds.7 mph57%30.04 "HgN/A
3:00 PM72 °FScattered clouds.8 mph50%30.04 "HgN/A
2:30 PM73 °FPassing clouds.8 mph44%30.04 "HgN/A
2:00 PM72 °FScattered clouds.6 mph50%30.04 "HgN/A
1:30 PM72 °FPassing clouds.6 mph57%30.04 "HgN/A
1:00 PM72 °FPassing clouds.7 mph57%30.04 "HgN/A
Weather by CustomWeather, © 2016

See weather overviewHow to use our weather pages